| time (UTC) | temp F | wind direction | speed MPH | gust MPH | rain 1hr in | rain 24hr in | rain mn in | humidity % | barometer mb |
| 20260504041535 | 33 | 245 | 0.0 | 0.0 | 0.00 | 0.00 | 0.00 | 85 | 1010.3 |
| 20260504040030 | 33 | 245 | 0.0 | 0.0 | 0.00 | 0.00 | 0.00 | 84 | 1010.2 |
| 20260504034530 | 34 | 225 | 0.0 | 0.0 | 0.00 | 0.00 | 0.00 | 83 | 1010.1 |
| 20260504033025 | 34 | 226 | 0.0 | 0.0 | 0.00 | 0.00 | 0.00 | 81 | 1009.8 |
| 20260504031526 | 35 | 225 | 0.0 | 0.0 | 0.00 | 0.00 | 0.00 | 81 | 1009.8 |
| 20260504030023 | 35 | 226 | 0.0 | 0.0 | 0.00 | 0.00 | 0.00 | 79 | 1009.8 |
| 20260504024520 | 36 | 226 | 0.0 | 0.0 | 0.00 | 0.00 | 0.00 | 78 | 1009.7 |
| 20260504023017 | 37 | 226 | 0.0 | 0.0 | 0.00 | 0.00 | 0.00 | 77 | 1009.7 |
| 20260504021514 | 37 | 226 | 0.0 | 0.0 | 0.00 | 0.00 | 0.00 | 75 | 1009.6 |
| 20260504020012 | 38 | 226 | 0.0 | 0.0 | 0.00 | 0.00 | 0.00 | 73 | 1009.6 |
| 20260504014510 | 39 | 226 | 0.0 | 0.0 | 0.00 | 0.00 | 0.00 | 73 | 1009.6 |
| 20260504013007 | 40 | 226 | 0.0 | 0.0 | 0.00 | 0.00 | 0.00 | 70 | 1009.4 |
| 20260504011505 | 41 | 226 | 0.0 | 0.0 | 0.00 | 0.00 | 0.00 | 67 | 1009.2 |
| 20260504010006 | 42 | 226 | 0.0 | 0.0 | 0.00 | 0.00 | 0.00 | 67 | 1009.1 |
| 20260504004517 | 43 | 225 | 0.0 | 0.0 | 0.00 | 0.00 | 0.00 | 65 | 1008.8 |
| 20260504003005 | 44 | 225 | 0.0 | 0.0 | 0.00 | 0.00 | 0.00 | 59 | 1008.7 |
| 20260504001514 | 46 | 226 | 0.0 | 0.0 | 0.00 | 0.00 | 0.00 | 57 | 1008.6 |
| 20260504000003 | 47 | 229 | 0.0 | 0.0 | 0.00 | 0.00 | 0.00 | 54 | 1008.3 |
| 20260503234502 | 49 | 229 | 0.0 | 0.0 | 0.00 | 0.00 | 0.00 | 51 | 1008.3 |
| 20260503233001 | 50 | 121 | 0.0 | 0.0 | 0.00 | 0.00 | 0.00 | 50 | 1008.0 |
| 20260503231501 | 50 | 231 | 0.0 | 0.0 | 0.00 | 0.00 | 0.00 | 47 | 1008.0 |
| 20260503230113 | 51 | 105 | 0.0 | 0.0 | 0.00 | 0.00 | 0.00 | 47 | 1007.7 |
| 20260503224611 | 51 | 285 | 0.0 | 0.0 | 0.00 | 0.00 | 0.00 | 44 | 1007.5 |
| 20260503223112 | 52 | 281 | 0.0 | 0.0 | 0.00 | 0.00 | 0.00 | 45 | 1007.5 |
| 20260503221558 | 51 | 228 | 0.0 | 0.0 | 0.00 | 0.00 | 0.00 | 45 | 1007.3 |
| 20260503220058 | 51 | 9 | 0.0 | 2.0 | 0.00 | 0.00 | 0.00 | 44 | 1007.2 |
| 20260503214600 | 52 | 274 | 0.0 | 5.0 | 0.00 | 0.00 | 0.00 | 43 | 1007.0 |
| 20260503213057 | 52 | 223 | 1.0 | 5.0 | 0.00 | 0.00 | 0.00 | 42 | 1006.8 |
| 20260503211558 | 52 | 311 | 0.0 | 1.0 | 0.00 | 0.00 | 0.00 | 44 | 1006.8 |
| 20260503210055 | 52 | 340 | 0.0 | 1.0 | 0.00 | 0.00 | 0.00 | 44 | 1006.6 |
| 20260503204555 | 52 | 197 | 0.0 | 6.0 | 0.00 | 0.00 | 0.00 | 46 | 1006.3 |
| 20260503203054 | 52 | 343 | 0.0 | 0.0 | 0.00 | 0.00 | 0.00 | 45 | 1006.1 |
| 20260503201554 | 52 | 247 | 0.0 | 10.0 | 0.00 | 0.00 | 0.00 | 44 | 1006.0 |
| 20260503200053 | 53 | 264 | 0.0 | 7.0 | 0.00 | 0.00 | 0.00 | 44 | 1005.9 |
| 20260503194606 | 52 | 340 | 0.0 | 5.0 | 0.00 | 0.00 | 0.00 | 45 | 1005.9 |
| 20260503193051 | 53 | 338 | 0.0 | 0.0 | 0.00 | 0.00 | 0.00 | 46 | 1005.9 |
| 20260503191557 | 51 | 284 | 0.0 | 1.0 | 0.00 | 0.00 | 0.00 | 47 | 1006.0 |
| 20260503190053 | 52 | 300 | 0.0 | 3.0 | 0.00 | 0.00 | 0.00 | 48 | 1006.0 |
| 20260503184549 | 52 | 313 | 0.0 | 6.0 | 0.00 | 0.00 | 0.00 | 48 | 1005.9 |
| 20260503183054 | 53 | 302 | 0.0 | 3.0 | 0.00 | 0.00 | 0.00 | 48 | 1005.9 |
| 20260503181558 | 52 | 323 | 0.0 | 2.0 | 0.00 | 0.00 | 0.00 | 48 | 1006.0 |
| 20260503180050 | 52 | 269 | 1.0 | 6.0 | 0.00 | 0.00 | 0.00 | 49 | 1006.0 |
| 20260503174547 | 52 | 237 | 0.0 | 0.0 | 0.00 | 0.00 | 0.00 | 53 | 1006.0 |
| 20260503173041 | 50 | 318 | 0.0 | 0.0 | 0.00 | 0.00 | 0.00 | 54 | 1006.2 |
| 20260503171539 | 50 | 226 | 0.0 | 0.0 | 0.00 | 0.00 | 0.00 | 59 | 1006.3 |
| 20260503081511 | 0 | 0.0 | 0.0 | 0.00 | 0.00 | 0.00 | 1007.9 | ||
| 20260503071551 | 0 | 0.0 | 0.0 | 0.00 | 0.00 | 0.00 | 1008.5 | ||
| 20260503054538 | 43 | 225 | 0.0 | 0.0 | 0.00 | 0.00 | 0.00 | 89 | 1009.6 |
| 20260503053031 | 43 | 284 | 0.0 | 0.0 | 0.00 | 0.00 | 0.00 | 89 | 1009.3 |
| 20260503051530 | 43 | 284 | 0.0 | 0.0 | 0.00 | 0.00 | 0.00 | 89 | 1009.7 |
| 20260503050029 | 43 | 284 | 0.0 | 0.0 | 0.00 | 0.00 | 0.00 | 89 | 1009.8 |
| 20260503044524 | 43 | 284 | 0.0 | 0.0 | 0.00 | 0.00 | 0.00 | 90 | 1010.0 |
| 20260503043022 | 43 | 284 | 0.0 | 0.0 | 0.00 | 0.00 | 0.00 | 91 | 1010.3 |